Weather in Nizhnetobolnoye

Russia / Kurgan Oblast     55°46′17″N   65°36′40″E
temp.,
°C
wind,
m/s
gust,
m/s
humid.,
%
clouds,
%
prec.,
mm/h
press.,
hPa
HPBL,
m
23 april, fri
fri2323:00+9sse61359100 0.0 1035414
02:00+7sse51163100 0.0 1035269
05:00+6s4107698 0.0 1035239
08:00+8s61162100 0.0 1035435
11:00+11ssw6750100 0.0 1035810
14:00+13s7940100 0.0 10341394
17:00+14s7841100 0.0 10341723
20:00+10sse51044100 0.0 1033297
24 april, sat
sat2423:00+8sse51144100 0.0 1032304
02:00+6sse4951100 0.0 1031250
05:00+5sse3855100 0.0 1030196
08:00+6sse4756100 0.0 1028326
11:00+7sse5660100 0.0 1028631
14:00+10se5745100 0.0 1026937
17:00+10se61045100 0.0 10241180
20:00+8se51044100 0.0 1023370
25 april, sun
sun2523:00+7se51147100 0.0 1021457
02:00+6se51056100 0.0 1020420
05:00+5ese586894 0.1 1018258
08:00+8ese795767 0.0 1016632
11:00+12sse6942100 0.0 10141293
14:00+8s5769100 0.1 10151010
17:00+9s4679100 0.3 1015769
20:00+7se36845 0.0 101385
26 april, mon
mon2623:00+8s5117675 0.1 1012371
02:00+5wsw49826 0.0 1013226
05:00+4wsw612765 0.0 1015462
08:00+7wsw710675 0.0 1017872
11:00+11wsw794586 0.1 10172128
14:00+12w71037100 0.4 10162615
17:00+12wsw7113579 0.4 10172769
20:00+9wsw4104082 0.0 1018191
27 april, tue
tue2723:00+7sw3751100 0.0 1019115
02:00+6sw3456100 0.0 101854
05:00+6s3555100 0.0 101783
08:00+7ssw5871100 0.0 1017666
11:00+7sse5682100 1.0 1015762
14:00+6e4787100 1.3 1012563
17:00+6ene3791100 1.8 1009397
20:00+5ne3593100 0.1 1008264